Regional Weather Roundup
Issued by NWS Sioux Falls, SD

Home | Current Version | Previous Version | Text Only | Print | Product List | Glossary On
Versions: 1 2 3 4 5 6 7 8 9 10 11 12 13 14 15 16 17 18 19 20 21 22 23 24 25 26 27 28 29 30 31 32 33 34 35 36 37 38 39 40 41 42 43 44 45 46 47 48 49 50
000
ASUS43 KFSD 021110
RWRFSD

WEATHER ROUNDUP FOR SE SOUTH DAKOTA/SW MINNESOTA/NW IOWA
NATIONAL WEATHER SERVICE SIOUX FALLS SD
500 AM CST MON MAR 02 2015

NOTE: "FAIR" INDICATES FEW OR NO CLOUDS BELOW 12,000 FEET WITH NO
SIGNIFICANT WEATHER AND OR OBSTRUCTIONS TO VISIBILITY.


SDZ038>040-050-052>070-021200-
SOUTHEAST SOUTH DAKOTA

CITY           SKY/WX    TMP DP  RH WIND       PRES   REMARKS
CHAMBERLAIN    PTCLDY    11   8  87 SE8       30.35F WCI  -1
HURON          PTCLDY     4   1  88 S6        30.41F WCI  -7
MADISON        FAIR       3   3 100 CALM      30.40S
MITCHELL       PTCLDY     5   2  87 SE6       30.42F WCI  -6
SIOUX FALLS    PTCLDY     7   3  84 CALM      30.44S
WINNER         FAIR      18   5  57 SE13      30.30F WCI   5
YANKTON        CLEAR     12   9  85 S3        30.46S
$$

MNZ071-072-080-081-089-090-097-098-021200-
SOUTHWEST MINNESOTA

CITY           SKY/WX    TMP DP  RH WIND       PRES   REMARKS
FAIRMONT       PTCLDY     7   1  78 CALM      30.44S
JACKSON        PTCLDY     3   0  85 CALM      30.44S
LUVERNE        PTCLDY     5   3  92 CALM      30.45S
MARSHALL       PTCLDY     7   1  78 SW7       30.45S WCI  -5
MONTEVIDEO     PTCLDY     5   1  85 W6        30.46R WCI  -6
PIPESTONE      PTCLDY     7   3  85 CALM      30.40S FOG
REDWOOD FALLS  MOCLDY     8   4  83 W5        30.45F WCI   0
TRACY          PTCLDY     8   4  82 SW6       30.44S WCI  -2
WINDOM         PTCLDY     1   0  92 CALM      30.44S
WORTHINGTON    PTCLDY     7   1  78 CALM      30.44F
$$

IAZ001>003-012>014-020>022-031-032-NEZ013-014-SDZ071-021200-
NORTHWEST IOWA

CITY           SKY/WX    TMP DP  RH WIND       PRES   REMARKS
CHEROKEE       PTCLDY     6   4  92 CALM      30.48S
DENISON        PTCLDY    12  10  92 CALM      30.46S
ESTHERVILLE    PTCLDY     4   2  91 W7        30.45S WCI  -8
LE MARS        PTCLDY     9   7  92 CALM      30.47F
ORANGE CITY    PTCLDY    16  10  79 CALM      30.44F
SHELDON        PTCLDY     5   1  85 CALM      30.44F
SIOUX CITY     PTCLDY    14   9  80 E5        30.48S WCI   6
SPENCER        MOCLDY     5   0  79 CALM      30.46R
STORM LAKE     PTCLDY    14  10  85 N3        30.46S
$$

ABBREVIATIONS USED IN REMARKS
   TC - TEMPERATURE IN CELSIUS
  WCI - WIND CHILL INDEX
   HX - HEAT INDEX
  VSB - VISIBILITY



USA.gov is the U.S. government's official web portal to all federal, state and local government web resources and services.